EHI
0 0 0 0 0 0 0 0 0 0 0 0 0 0 0 0 0 0 0 0 0 0 0 0 0 0 0 0 0 0 0 0 0 0 0 0 0 0 0 0 0 0 0
0 0 0 0 0 0 0 0 0 0 0 0 0 0 0 0 0 0 0 0 0 0 0 0 0 0 0 0 0 0 0 0 0 0 0 0 0 0 0 0 0 0 0
0 0 0 0 0 0 0 0 0 0 0 0 0 0 0 0 0 0 0 0 0 0 0 0 0 0 0 0 0 0 0 0 0 0 0 0 0 0 0 0 0 0 0
0 0 0 0 0 0 0 0 0 0 0 0 0 0 0 0 0 0 0 0 0 0 0 0 0 0 0 0 0 0 0 0 0 0 0 0 0 0 0 0 0 0 0
0 0 0 0 0 0 0 0 0 0 0 0 0 0 0 0 0 0 0 0 0 0 0 0 0 0 0 0 0 0 0 0 0 0 0 0 0 0 0 0 0 0 0
0 0 0 0 0 0 0 0 0 0 0 0 0 0 0 0 0 0 0 0 0 0 0 0 0 0 0 0 0 0 0 0 0 0 0 0 0 0 0 0 0 0 0
0 0 0 0 0 0 0 0 0 0 0 0 0 0 0 0 0 0 0 0 0 0 0 0 0 0 0 0 0 0 0 0 0 0 0 0 0 0 0 0 0 0 0
0 0 0 0 0 0 0 0 0 0 0 0 0 0 0 0 0 0 0 0 0 0 0 0 0 0 0 0 0 0 0 0 0 0 0 0 0 0 0 0 0 0 0
0 0 0 0 0 0 0 0 0 0 0 0 0 0 0 0 0 0 0 0 0 0 0 0 0 0 0 0 0 0 0 0 0 0 0 0 0 0 0 0 0 0 0
0 0 0 0 0 0 0 0 0 0 0 0 0 0 0 0 0 0 0 0 0 0 0 0 0 0 0 0 0 0 0 0 0 0 0 0 0 0 0 0 0 0 0
0 0 0 0 0 0 0 0 0 0 0 0 0 0 0 0 0 0 0 0 0 0 0 0 0 0 0 0 0 0 0 0 0 0 0 0 0 0 0 0 0 0 0
0 0 0 0 0 0 0 0 0 0 0 0 0 0 0 0 0 0 0 0 0 0 0 0 0 0 0 0 0 0 0 0 0 0 0 0 0 0 0 0 0 0 0
0 0 0 0 0 0 0 0 0 0 0 0 0 0 0 0 0 0 0 0 0 0 0 0 0 0 0 0 0 0 0 0 0 0 0 0 0 0 0 0 0 0 0
0 0 0 0 0 0 0 0 0 0 0 0 0 0 0 0 0 0 0 0 0 0 0 0 0 0 0 0 0 0 0 0 0 0 0 0 0 0 0 0 0 0 0
0 0 0 0 0 0 0 0 0 0 0 0 0 0 0 0 0 0 0 0 0 0 0 0 0 0 0 0 0 0 0 0 0 0 0 0 0 0 0 0 0 0 0
0 0 0 0 0 0 0 0 0 0 0 0 0 0 0 0 0 0 0 0 0 0 0 0 0 0 0 0 0 0 0 0 0 0 0 0 0 0 0 0 0 0 0
0 0 0 0 0 0 0 0 0 0 0 0 0 0 0 0 0 0 0 0 0 0 0 0 0 0 0 0 0 0 0 0 0 0 0 0 0 0 0 0 0 0 0
0 0 0 0 0 0 0 0 0 0 0 0 0 0 0 0 0 0 0 0 0 0 0 0 0 0 0 0 0 0 0 0 0 0 0 0 0 0 0 0 0 0 0
0 0 0 0 0 0 0 0 0 0 0 0 0 0 0 0 0 0 0 0 0 0 0 0 0 0 0 0 0 0 0 0 0 0 0 0 0 0 0 0 0 0 0
0 0 0 0 0 0 0 0 0 0 0 0 0 0 0 0 0 0 0 0 0 0 0 0 0 0 0 0 0 0 0 0 0 0 0 0 0 0 0 0 0 0 0
0 0 0 0 0 0 0 0 0 0 0 0 0 0 0 0 0 0 0 0 0 0 0 0 0 0 0 0 0 0 0 0 0 0 0 0 0 0 0 0 0 0 0
0 0 0 0 0 0 0 0 0 0 0 0 0 0 0 0 0 0 0 0 0 0 0 0 0 0 0 0 0 0 0 0 0 0 0 0 0 0 0 0 0 0 0
0 0 0 0 0 0 0 0 0 0 0 0 0 0 0 0 0 0 0 0 0 0 0 0 0 0 0 0 0 0 0 0 0 0 0 0 0 0 0 0 0 0 0
0 0 0 0 0 0 0 0 0 0 0 0 0 0 0 0 0 0 0 0 0 0 0 0 0 0 0 0 0 0 0 0 0 0 0 0 0 0 0 0 0 0 0
0 0 0 0 0 0 0 0 0 0 0 0 0 0 0 0 0 0 0 0 0 0 0 0 0 0 0 0 0 0 0 0 0 0 0 0 0 0 0 0 0 0 0
0 0 0 0 0 0 0 0 0 0 0 0 0 0 0 0 0 0 0 0 0 0 0 0 0 0 0 0 0 0 0 0 0 0 0 0 0 0 0 0 0 0 0
Wind_Speed
8 10 12 11 11 13 13 13 13 12 14 14 13 12 11 10 9 7 6 6 6 4 3 4 3 3 2 2 2 2 2 3 5 4 3 3 5 7 9 8 8 8 9
8 10 12 12 13 13 13 13 13 14 13 13 13 12 11 10 8 8 7 6 5 4 3 3 3 3 3 3 2 3 3 4 4 5 4 4 6 7 8 9 10 10 7
8 11 12 12 13 13 13 13 14 14 14 13 12 11 10 9 8 7 6 5 4 3 3 3 3 3 4 3 4 4 4 4 4 4 5 4 4 6 8 9 9 8 10
7 10 11 11 11 12 13 13 13 14 14 12 11 10 9 9 8 7 7 6 5 3 2 0 2 4 5 5 4 5 5 4 4 4 5 5 5 6 5 6 9 6 8
7 9 10 11 12 13 13 13 13 12 12 12 12 10 9 7 6 7 6 5 4 3 2 2 3 5 7 5 5 5 4 4 4 4 5 6 7 6 6 6 11 9 8
9 11 12 14 14 14 14 14 14 13 13 12 11 10 8 6 10 10 7 4 3 2 2 3 4 5 7 8 9 9 9 6 4 4 5 8 9 8 7 9 10 12 10
11 12 13 15 16 16 16 16 15 13 12 11 9 8 8 8 10 9 8 4 2 1 2 3 3 3 5 2 7 12 11 14 14 9 9 9 10 9 9 10 10 11 13
13 13 14 16 17 16 16 15 13 10 9 8 7 7 6 6 8 7 8 4 2 2 2 2 2 4 5 7 6 5 5 6 10 8 8 9 9 9 9 11 11 11 11
13 13 13 14 15 15 14 12 10 10 8 6 5 5 5 5 7 6 6 2 0 1 2 3 4 4 11 13 7 5 6 7 13 17 18 17 20 21 17 8 7 9 13
11 12 12 12 13 13 12 10 8 8 7 6 5 4 4 3 4 3 5 2 2 2 3 4 8 9 12 14 7 6 7 8 8 9 10 12 11 13 17 8 5 9 11
11 11 12 11 11 11 10 8 7 7 6 5 5 3 2 1 1 2 1 2 1 2 2 3 4 12 14 16 14 6 10 11 4 5 7 8 8 6 6 6 6 7 11
11 12 11 10 9 9 9 7 7 7 6 5 4 3 2 2 3 3 5 5 6 2 3 3 6 14 16 16 11 12 16 13 5 6 7 8 7 8 8 8 9 9 11
11 11 10 10 9 8 8 7 6 5 4 3 2 2 1 2 4 7 8 9 11 5 4 10 13 14 13 9 12 15 11 5 6 6 8 8 6 8 9 9 9 10 12
11 9 9 9 8 7 6 5 4 4 3 2 2 1 1 2 3 3 3 4 7 7 6 8 11 11 9 10 10 8 5 5 6 6 8 9 9 8 8 7 9 10 11
9 8 7 7 6 6 4 3 4 2 3 3 2 1 0 2 4 8 5 4 4 5 4 2 2 3 4 4 5 5 4 5 6 6 8 9 10 10 10 8 7 9 10
8 6 5 5 4 4 4 3 5 3 5 3 3 2 3 5 8 10 12 13 13 12 5 3 4 4 5 6 7 7 7 6 6 7 8 8 9 10 11 9 9 10 11
7 6 4 4 3 3 3 3 2 4 6 6 6 6 6 7 9 11 12 12 11 10 3 3 4 5 5 6 6 6 7 7 6 7 8 8 9 9 10 10 10 10 11
6 6 5 4 3 3 3 2 2 1 2 2 5 8 8 8 9 10 11 8 5 5 3 4 4 5 6 6 6 7 7 8 7 7 8 8 8 9 10 10 10 11 12
6 4 4 3 3 2 2 2 2 2 1 1 2 4 8 8 8 9 8 3 4 5 4 4 5 5 6 6 6 7 7 8 8 8 8 9 9 9 10 10 11 17 15
4 7 5 3 3 2 2 2 2 1 1 1 2 3 3 3 2 3 3 3 4 5 5 5 6 6 6 6 7 7 7 8 8 8 8 9 9 9 11 13 12 12 12
3 4 7 4 3 2 2 2 1 1 1 2 2 4 7 2 3 4 4 4 4 5 5 6 6 6 6 6 6 7 9 8 8 8 9 9 10 10 11 11 12 12 13
3 3 3 3 2 2 2 1 1 1 2 2 2 4 8 3 3 4 4 5 5 5 5 6 7 6 6 7 7 8 9 9 9 8 9 10 10 11 11 12 12 11 11
3 3 3 2 2 3 2 1 1 2 2 2 3 3 3 3 4 4 4 5 6 6 6 6 7 7 7 7 7 8 9 10 9 10 11 12 12 11 11 11 13 13 12
4 3 3 2 2 1 1 1 2 2 2 2 3 3 3 3 4 6 5 5 6 6 7 6 7 10 13 10 8 8 9 10 11 11 15 14 13 11 10 10 11 13 12
3 3 3 2 1 1 1 1 2 2 3 3 3 4 4 4 5 5 5 6 7 8 9 9 7 9 12 14 14 12 16 22 21 15 13 11 11 11 11 12 11 12 12
3 3 2 1 0 1 1 2 2 2 3 3 4 4 4 5 5 6 6 6 6 8 9 8 9 12 14 13 14 17 22 24 24 24 14 9 10 10 11 10 12 11 12
Wind_Direction
200 179 167 166 162 160 161 159 154 149 148 152 150 148 148 146 141 138 143 150 153 155 158 171 183 171 175 190 192 197 207 199 245 264 254 272 284 290 300 295 292 285 288
191 169 163 158 158 158 156 153 149 148 147 148 146 145 148 144 141 145 150 151 152 158 167 172 193 188 196 204 209 221 225 218 229 270 271 274 277 284 285 287 295 293 289
169 158 153 154 155 152 147 145 144 143 142 142 143 144 141 134 130 131 128 126 125 132 155 188 210 203 221 227 227 229 233 242 237 264 281 272 273 279 283 281 281 280 287
151 149 148 148 144 139 135 136 137 138 137 135 131 126 123 120 120 119 113 109 105 96 86 121 244 225 229 232 233 235 239 252 258 264 279 284 279 276 275 289 299 282 287
119 122 122 118 117 117 119 120 120 120 118 115 112 108 107 109 115 113 108 104 96 77 33 335 284 245 232 243 240 233 229 238 254 263 280 291 292 294 296 294 302 303 290
93 102 106 108 107 106 105 105 102 100 102 105 109 112 107 108 116 110 106 95 83 45 337 313 291 272 272 286 293 293 288 278 274 269 279 289 295 293 293 297 301 303 301
85 93 99 101 100 99 100 97 96 96 97 97 97 100 103 115 116 111 105 100 72 15 326 318 314 307 321 298 289 294 295 293 292 293 289 286 290 290 289 290 289 291 295
88 91 95 97 98 97 97 97 95 94 94 94 97 106 115 131 129 121 110 95 68 14 353 348 314 305 302 289 263 262 261 271 278 281 266 269 273 273 271 288 294 294 287
92 93 96 100 103 103 102 101 101 101 100 105 119 136 147 151 145 132 130 136 184 304 300 309 317 301 303 302 297 278 271 270 287 292 292 293 297 302 303 300 294 298 297
93 93 94 98 102 105 106 107 109 115 124 130 125 131 144 160 178 165 156 185 241 279 294 304 318 314 304 306 302 288 286 281 278 286 294 298 296 292 297 288 275 286 294
95 93 92 94 100 106 108 114 121 117 108 99 92 80 89 158 237 282 280 183 250 301 308 305 300 312 311 312 313 301 293 302 307 309 302 297 295 290 286 275 259 263 280
97 96 97 98 102 106 106 99 93 95 93 91 91 77 46 16 346 328 345 347 337 322 303 291 291 308 314 319 320 309 311 324 325 308 301 299 299 298 295 289 280 266 259
98 96 93 88 85 88 93 92 85 85 95 104 116 114 58 14 357 4 351 338 330 323 291 302 308 315 325 327 315 316 325 322 304 302 301 298 290 284 289 291 288 281 274
96 91 89 88 82 75 79 88 99 110 120 131 126 106 26 347 325 304 292 300 310 305 294 300 318 330 329 319 316 316 305 293 299 297 301 300 301 298 296 294 298 303 299
93 92 88 86 90 86 85 102 120 141 146 134 136 155 207 297 296 319 327 303 292 286 319 357 341 319 313 308 304 299 298 304 305 298 300 303 303 303 301 302 294 299 294
103 96 94 97 98 101 102 83 76 92 83 95 177 217 249 284 318 338 333 329 331 335 356 333 314 309 308 311 313 312 309 302 299 301 300 297 299 300 300 300 296 296 295
109 108 102 104 105 103 96 92 65 32 38 35 21 0 349 348 350 343 336 343 347 349 339 303 298 300 299 299 299 300 301 300 297 297 296 297 297 297 298 300 301 299 296
103 111 110 103 100 97 100 106 111 90 28 351 356 357 354 351 348 345 348 355 339 339 307 297 295 297 297 298 299 300 301 303 302 300 297 296 296 296 297 297 297 297 297
106 105 104 106 108 111 110 106 93 81 57 343 325 336 347 347 355 354 357 339 311 313 309 300 294 293 294 295 295 294 293 294 295 297 297 296 296 296 295 295 295 297 299
115 131 127 122 118 111 99 92 83 63 21 340 322 307 309 345 347 332 329 305 303 304 305 302 300 294 293 292 292 293 295 295 296 296 295 295 294 293 293 294 294 296 296
115 128 125 115 111 110 102 90 76 27 324 309 300 309 338 15 332 316 314 308 303 305 303 303 299 296 290 287 288 290 292 293 292 292 292 292 293 293 292 291 291 291 291
123 119 118 117 111 102 98 74 31 336 317 315 308 316 342 345 309 303 303 307 305 299 296 296 293 289 287 289 291 293 293 291 291 290 289 290 291 291 291 290 291 295 301
123 119 110 103 92 68 72 36 355 328 317 313 311 315 324 319 311 304 304 308 307 301 297 292 290 291 287 284 282 280 282 284 285 286 287 289 289 288 289 293 299 303 306
120 116 110 102 92 80 43 343 333 327 322 316 315 310 309 307 305 304 302 299 298 295 293 291 288 289 292 295 292 285 279 280 279 278 277 279 288 296 301 302 302 302 306
113 107 105 103 88 40 341 325 320 318 318 319 317 313 309 304 299 296 294 293 295 294 295 295 290 291 295 298 298 295 294 298 301 299 295 297 302 305 305 304 304 307 308
114 109 104 100 83 337 314 306 305 309 305 301 298 294 293 292 292 291 292 292 295 298 298 297 293 296 299 300 298 301 305 309 311 312 313 309 310 310 311 308 307 310 310